Tracking 25648 objects as of 17-May-2022
HD Live streaming from Space Station
objects crossing your sky now

OPS 7898 (P/L 3)

Track OPS 7898 (P/L 3) now!
10-day predictions
OPS 7898 (P/L 3) is classified as:


NORAD ID: 5681
Int'l Code: 1971-110D
Perigee: 983.0 km
Apogee: 998.6 km
Inclination: 70.0 °
Period: 104.8 minutes
Semi major axis: 7361 km
RCS: Unknown
Launch date: December 14, 1971
Source: United States (US)
Launch site: AIR FORCE WESTERN TEST RANGE (AFWTR)
aabbcc
Your satellite tracking list
Your tracking list is empty




NASA's NSSDC Master Catalog

Two Line Element Set (TLE):
1 05681U 71110D   22136.77434909  .00000015  00000-0  68457-4 0  9997
2 05681  69.9893 204.6768 0010632 248.5207 111.4754 13.74441338151737
Source of the keplerian elements: McCants